Regional Weather Roundup
Issued by NWS

Home | Current Version | Previous Version | Text Only | Print | Product List | Glossary On
Versions: 1 2 3 4 5 6 7 8 9 10 11 12 13 14 15 16 17 18 19 20 21 22 23 24 25 26 27
000
ASUS42 KFFC 290203
RWRGA
WEATHER ROUNDUP FOR GEORGIA
NATIONAL WEATHER SERVICE PEACHTREE CITY GA
1000 PM EDT THU JUL 28 2016

NOTE: "FAIR" INDICATES FEW OR NO CLOUDS BELOW 12,000 FEET WITH NO
SIGNIFICANT WEATHER AND/OR OBSTRUCTIONS TO VISIBILITY.

* = USE WITH CAUTION. THE STATIONS MARKED WITH AN ASTERISK MAY NOT
REPORT WEATHER SUCH AS PRECIPITATION, FOG, OR THUNDER AND ARE NOT
QUALITY CONTROLLED BY NWS.

THE REMARK "TC" DENOTES TEMPERATURE READING IN DEGREES CELSIUS.

GAZ001>058-290300-
NORTH GEORGIA

CITY           SKY/WX    TMP DP  RH WIND       PRES   REMARKS
ATLANTA        CLOUDY    81  71  71 W9        30.01R
ATHENS         CLEAR     80  71  74 VRB3      29.99R
CHAMBLEE       MOCLDY    81  70  69 NW10      30.01R
PEACHTREE CITY CLEAR     80  72  76 W3        30.01R
ROME           MOCLDY    77  71  82 SW3       29.98S
WEST ATLANTA   PTCLDY    81  69  67 NW9       30.00R
GAINESVILLE    MOCLDY    76  72  87 W12       30.03R
CARTERSVILLE   PTCLDY    75  73  93 CALM      30.01R


CITY           SKY/WX    TMP DP  RH WIND       PRES   REMARKS
DALTON*        CLOUDY    75  72  88 CALM      29.99R
MARIETTA       LGT RAIN  78  73  86 W8        30.01
CANTON*        PTCLDY    77  68  73 W3        30.03R
BLAIRSVILLE*     N/A    N/A N/A N/A MISG      30.04S
$$

GAZ059>098-102>109-290300-
CENTRAL GEORGIA

CITY           SKY/WX    TMP DP  RH WIND       PRES   REMARKS
AUGUSTA-BUSH   CLEAR     88  65  46 SW3       29.95R HX  90
AUGUSTA-DANIEL CLEAR     89  66  46 W5        29.97R HX  91
COLUMBUS       CLEAR     87  64  46 W7        29.99R
MACON          CLEAR     85  65  51 CALM      29.98R
ROBINS AFB     CLEAR     88  66  47 W7        29.98  HX  90


CITY           SKY/WX    TMP DP  RH WIND       PRES   REMARKS
LAGRANGE*      MOCLDY    83  74  76 W10       30.02R
MILLEDGEVILLE* PTCLDY    86  72  62 CALM      29.99R HX  92
$$

GAZ099>101-110>166-290300-
SOUTH GEORGIA

CITY           SKY/WX    TMP DP  RH WIND       PRES   REMARKS
SAVANNAH       PTCLDY    86  77  74 S10       29.98R HX  97
VALDOSTA       CLEAR     80  73  79 CALM      30.02R
ALMA           CLEAR     82  71  69 SW3       30.00R
ST SIMONS      PTCLDY    87  77  72 VRB7      30.00R HX  99
ALBANY         CLEAR     85  71  63 W3        30.02R HX  90
MOODY AFB      CLEAR     84  72  65 SW7       30.02R
BRUNSWICK      PTCLDY    86  77  74 SW6       30.00R HX  97


CITY           SKY/WX    TMP DP  RH WIND       PRES   REMARKS
BAINBRIDGE*    CLEAR     81  73  78 CALM      30.02R
MOULTRIE*      CLEAR     82  72  69 CALM      30.03R
VIDALIA*       CLEAR     84  66  54 CALM      29.99R
WAYCROSS*      CLEAR     88  73  60 W5        30.00R HX  96
DOUGLAS*       CLEAR     81  68  65 SW6       30.02R
$$




USA.gov is the U.S. government's official web portal to all federal, state and local government web resources and services.